Powrót do katalogu

APRIZESAT 7

AktywnyŁącznośćSSO
NORAD 39416·PAYLOAD·🇺🇸 United States

Wystrzelony Nov 21, 2013 z Dombarovsky

Loading…

Następne Przeloty (najbliższe 24 godziny)

TLE

ŚwieżeSource: Space-Track

Epoka: Sep 14, 2026, 07:18 UTC

1 39416U 13066A   26257.30461637  .00000869  00000-0  91084-4 0  9990
2 39416  97.7797 209.2911 0034140 276.3622  83.3709 14.91747117694512

Śledź APRIZESAT 7 w czasie rzeczywistym z AllMySat

Download on the App Store